CAPE
908 792 1284 1178 1365 1131 1236 932 1141 961 1058 1206 846 302 360 304 470 478 571 456 371 376 317 315 335 317 236 161 173 178 328 379 352 353 596 663 702 810 956 920 1076 1254 1099 748 523 417 336 147 158 96 19 0 0 1 0 2 2 0 0 2 166 227 68 1 0 0 0 0 0 0 0 0 0 0 0 0 0 0 0 0 0 0 0 0 0
1214 1390 1319 1276 1259 1307 1346 1150 1140 1266 1110 1063 894 351 340 370 324 388 458 538 385 333 242 336 254 296 290 246 156 161 385 430 570 417 362 388 458 796 1014 873 991 1099 1272 1284 1120 603 486 288 230 161 56 8 6 0 2 2 2 0 2 1 283 250 116 47 28 3 0 0 0 0 0 0 0 0 0 0 0 0 0 0 0 0 0 0 0
1767 1620 1611 1692 1571 1784 1940 2040 1850 1457 1311 865 959 802 577 469 242 413 394 496 431 324 269 211 278 284 279 212 104 206 279 326 481 557 532 500 548 1095 1331 1056 1008 1140 1191 1052 1315 909 609 498 344 227 148 38 24 8 0 1 2 0 1 12 234 193 205 111 34 0 0 0 0 0 0 0 0 0 0 0 0 0 0 0 0 0 0 0 0
1861 1588 1032 1539 1465 1648 1920 1821 1718 1340 1162 1022 1150 890 751 471 288 324 420 373 278 387 385 409 256 278 285 392 344 320 232 258 280 290 426 527 498 510 1107 1065 1164 1302 1195 1184 1071 1221 1020 670 539 376 278 138 61 22 13 0 1 0 2 6 299 117 230 171 77 26 1 0 0 0 0 0 0 0 0 0 0 0 0 0 0 0 0 0 0
1762 1462 1537 989 1560 1763 1637 1597 1502 1090 1048 1256 1219 1232 650 320 197 204 311 365 471 463 460 398 306 235 593 522 292 266 293 207 485 505 469 332 168 358 771 834 945 1224 1081 1212 1065 1110 1430 1072 628 528 396 300 182 80 45 0 0 0 0 1 115 101 67 211 131 61 10 1 0 0 0 0 0 0 0 0 0 0 0 0 0 0 0 0 0
1316 1610 1492 1399 1535 1435 1480 1405 1615 1761 1238 1300 1318 1241 1077 709 348 256 312 307 725 541 378 303 193 244 552 597 588 451 231 290 308 398 400 312 225 167 240 380 787 831 875 1432 1307 1054 1060 1262 1033 713 551 428 331 229 138 18 0 2 0 0 5 127 48 100 213 116 52 4 1 0 0 0 0 0 0 0 0 0 0 0 0 0 0 0 0
1432 1344 1006 1151 1389 1521 1668 1273 1953 1604 1127 1251 1504 1409 923 910 1201 440 442 583 490 748 497 1382 870 628 856 545 217 255 243 224 154 264 388 362 286 316 299 236 373 430 650 780 1264 999 977 1006 1425 1358 862 565 468 394 320 228 105 39 6 0 0 14 42 68 113 236 110 40 0 1 0 0 0 0 0 0 0 0 0 0 0 0 0 0 0
1421 1568 1314 1137 1328 1504 1496 1803 1285 1545 1016 1173 1105 1086 1450 1592 1379 1368 780 582 507 584 738 1080 1019 901 909 798 680 568 388 468 247 234 175 269 318 263 201 178 216 380 369 446 583 925 814 942 1001 1218 1346 1035 644 442 483 361 158 148 45 1 0 0 7 17 6 243 192 82 13 0 1 1 0 0 0 0 0 0 0 0 0 0 0 0 0
1325 1438 1672 1710 1576 1747 1272 1330 1268 1187 1409 1181 1461 1197 1231 1290 1075 984 807 938 667 681 1071 1146 1056 1161 1209 988 708 778 644 506 145 121 196 122 171 141 98 206 238 255 435 449 500 974 1115 729 990 906 956 1164 946 651 524 532 418 358 174 54 31 0 0 0 2 31 261 134 60 6 0 0 1 0 0 0 0 0 0 0 0 0 0 0 0
1145 1252 1871 1665 1438 1118 1145 1242 1160 1296 1244 1775 1459 1320 1191 980 1091 734 885 841 575 588 795 963 835 971 1311 1340 1228 1111 979 500 363 307 132 133 106 94 96 140 140 198 244 251 239 365 1139 1073 784 908 752 792 948 1038 732 612 526 460 361 281 197 153 59 14 0 0 189 189 152 58 5 0 0 0 0 0 0 0 0 0 0 0 0 0 0
1031 1174 1512 1394 1404 1025 1063 1396 1090 1059 1426 1483 1593 1011 708 552 829 1018 1237 747 820 962 882 530 585 671 453 1126 1555 1341 982 828 404 405 142 102 101 89 19 32 99 187 208 224 292 317 845 940 1165 972 1058 605 644 1052 1064 1003 804 639 542 417 208 295 246 132 30 0 21 126 210 131 70 18 0 0 0 0 0 0 0 0 0 0 0 0 0
826 830 1185 1429 1262 978 955 1394 1246 885 954 1046 1342 1593 1052 866 826 553 691 950 803 1004 1018 799 850 618 694 696 852 811 1084 1045 740 530 281 232 153 125 59 81 112 148 147 178 192 214 276 601 925 768 782 816 428 634 899 957 940 1114 742 577 281 248 314 315 240 59 7 20 178 186 160 41 0 0 0 0 0 0 0 0 0 0 0 0 0
229 233 344 356 470 1177 1083 1216 1170 942 960 792 754 686 696 1061 1054 922 998 799 410 772 1342 1249 1157 972 994 906 863 578 738 607 1034 434 119 272 218 163 378 435 311 238 175 135 121 133 171 192 262 348 489 556 798 516 510 636 808 1019 1190 968 554 305 286 426 455 400 189 17 40 226 227 102 3 0 0 0 0 0 0 0 0 0 0 0 0
178 157 179 181 209 478 1052 1029 1354 1176 961 885 818 562 558 719 644 603 583 514 499 901 1307 949 578 594 406 574 690 1311 788 172 52 440 373 352 285 177 543 631 443 383 486 215 201 151 99 97 210 172 149 230 705 662 880 632 766 714 1251 1370 1091 753 512 406 500 558 482 295 50 91 308 186 30 0 0 0 0 0 0 0 0 0 0 0 0
0 13 108 41 124 179 394 511 964 1217 1256 1138 850 587 575 759 502 630 421 456 980 1024 1287 724 489 512 340 292 324 452 793 625 340 268 558 637 435 362 169 48 112 148 267 462 222 228 82 46 94 153 187 177 207 403 670 806 601 700 815 1074 1294 1195 922 635 524 609 647 600 470 202 348 272 71 2 0 0 0 0 0 0 0 0 0 0 0
30 10 4 3 30 56 144 151 344 351 418 797 413 389 1158 1014 951 876 953 995 715 741 1181 1177 1193 780 236 387 676 412 232 472 481 828 350 164 27 1 2 8 118 260 219 484 299 256 281 203 112 156 445 505 209 226 128 985 491 661 484 633 695 1155 1263 970 790 646 740 769 723 598 388 390 178 41 2 0 0 0 0 0 0 0 0 0 0
0 0 0 1 8 32 31 59 61 155 159 114 118 149 253 343 479 613 769 739 628 787 951 1092 754 1444 832 427 262 290 272 620 700 752 840 98 45 29 134 62 90 174 212 178 209 354 541 845 744 448 557 490 481 467 308 295 677 766 968 380 548 618 931 1394 1322 1027 856 802 872 752 738 498 344 138 23 0 0 0 0 0 0 0 0 0 0
0 0 0 0 7 7 12 4 44 94 42 29 2 1 0 37 227 711 830 744 770 416 414 1002 1129 1243 859 1335 323 851 720 358 180 153 982 813 312 129 236 157 318 364 151 110 434 530 363 340 650 1169 1223 859 612 530 494 299 512 553 882 1147 357 420 628 834 1350 1524 1241 926 670 673 573 808 470 217 76 7 0 0 0 0 0 0 0 0 0
0 0 0 0 0 2 12 0 0 0 2 5 5 1 0 2 13 53 118 276 438 614 315 319 803 589 562 699 442 496 440 250 160 140 450 688 898 648 390 148 344 316 232 266 452 340 166 316 427 237 860 991 1062 887 715 406 185 195 103 352 522 298 387 440 580 1394 1600 1444 1197 832 638 582 751 338 132 40 3 0 0 0 0 0 0 0 0
9 0 1 0 0 0 0 0 0 0 0 0 1 1 8 10 8 13 22 26 68 310 301 485 436 506 379 200 310 271 236 85 71 184 290 276 505 985 964 597 276 227 208 334 742 335 655 891 266 362 347 464 462 607 733 458 508 429 328 71 664 491 415 437 438 477 934 1502 1560 1203 981 760 747 480 227 93 14 0 0 0 0 0 0 0 0
3 0 0 0 0 0 0 0 0 0 0 0 0 1 8 11 13 18 30 35 49 54 37 36 26 52 103 206 421 203 204 178 184 246 162 192 250 187 316 844 809 328 130 273 397 368 984 1139 776 406 710 1324 712 757 592 658 664 896 413 484 518 535 574 564 605 686 745 686 1001 1599 1375 984 760 864 378 186 65 5 0 0 0 0 0 0 0
0 0 0 0 0 0 0 0 0 0 0 0 0 0 0 0 7 17 17 26 27 37 35 19 10 12 5 5 38 23 204 151 66 21 40 174 32 14 56 74 200 701 384 64 22 2 0 25 170 21 13 66 465 616 590 838 715 868 789 593 672 849 839 604 463 416 522 570 572 718 1356 1583 1038 840 836 490 297 85 11 0 0 0 0 0 0
0 0 0 0 0 0 0 0 0 0 0 0 0 0 0 0 0 0 0 0 0 0 0 0 0 0 0 0 0 0 2 2 4 1 0 0 0 0 0 0 0 0 172 328 98 5 1 0 0 0 0 0 6 176 516 334 334 421 564 638 632 680 644 539 433 331 107 258 319 352 542 1050 1246 979 806 877 652 335 114 44 7 0 0 1 1
0 0 0 0 0 0 0 0 0 0 0 0 0 0 0 0 0 0 0 0 0 0 0 0 0 0 0 0 0 0 0 0 0 0 0 0 0 0 0 0 0 0 0 0 0 0 1 0 0 0 0 0 5 2 60 425 358 371 525 549 562 503 307 180 198 194 170 139 43 0 66 539 856 931 1036 1074 869 667 474 242 124 58 8 2 3
0 0 0 0 0 0 0 0 0 0 0 0 0 0 0 0 0 0 0 0 0 0 0 0 0 0 0 0 0 0 0 0 0 0 0 0 0 0 0 0 0 0 0 0 0 0 0 0 0 0 2 0 1 18 67 74 139 685 11 334 35 253 180 169 154 154 132 119 78 0 0 62 527 796 907 928 873 900 652 489 170 64 2 0 0
0 0 0 0 0 0 0 0 0 0 0 0 0 0 0 0 0 0 0 0 0 0 0 0 0 0 0 0 0 0 0 0 0 0 0 0 0 0 0 0 0 0 0 0 0 0 0 0 0 0 0 5 17 77 111 148 374 157 18 132 101 207 236 165 90 68 78 4 0 12 97 86 73 352 738 848 882 664 587 500 413 0 0 0 0
1 0 0 0 0 0 0 0 0 0 0 0 0 0 0 0 0 0 0 0 0 0 0 0 0 0 0 0 0 0 0 0 0 0 0 0 0 0 0 0 0 0 0 0 0 0 0 0 0 0 0 70 18 21 11 52 48 930 0 351 138 48 0 164 207 0 0 0 0 0 47 37 80 78 78 367 575 648 522 544 468 349 165 0 0
34 30 0 0 0 0 0 0 0 0 0 0 0 0 0 0 0 0 0 0 0 0 0 0 0 0 0 0 0 0 0 0 0 0 0 0 0 0 0 0 0 0 0 0 0 0 0 0 0 0 3 7 4 7 11 8 177 0 0 152 8 27 158 0 0 0 0 0 0 0 0 0 98 60 49 73 105 241 490 546 534 488 376 293 81
77 116 1 4 12 1 0 0 0 0 0 0 0 0 0 0 0 0 0 0 0 0 0 0 0 0 0 0 0 0 0 0 0 0 0 0 0 0 0 0 0 0 0 0 0 0 0 0 0 0 0 1 14 20 11 4 281 207 5 2 36 178 100 0 0 0 0 0 0 0 0 34 159 143 120 112 94 92 93 354 512 491 443 368 316
67 226 30 31 36 19 11 0 0 0 0 0 0 0 0 0 0 0 0 0 0 0 0 0 0 0 0 0 0 0 0 0 0 0 0 0 0 0 0 0 0 0 0 0 0 0 0 0 0 0 0 0 0 0 10 4 12 0 0 0 0 281 29 0 0 0 0 0 0 0 0 0 0 0 34 80 120 131 139 98 261 422 416 381 384
34 211 67 94 67 56 75 12 0 0 0 0 0 0 0 0 0 0 0 0 0 0 0 0 0 0 0 0 0 0 0 0 0 0 0 0 0 0 0 0 0 0 0 0 0 0 0 0 0 0 0 0 0 0 0 0 0 0 0 0 0 0 0 33 0 0 0 0 0 0 0 0 0 0 0 0 0 0 70 88 145 173 309 372 358
52 162 106 129 91 71 99 39 16 0 0 0 0 0 0 0 0 0 0 0 0 0 0 0 0 0 0 0 0 0 0 0 0 0 0 0 0 0 0 0 0 0 0 0 0 0 0 0 0 0 0 0 0 0 0 0 0 0 0 0 0 0 1 0 0 0 0 0 0 0 0 0 0 0 0 0 0 0 0 0 0 0 0 110 329
108 152 117 181 109 102 92 71 43 1 0 0 0 0 0 0 0 0 0 0 0 0 0 0 0 0 0 0 0 0 0 0 0 0 0 0 0 0 0 0 0 0 0 0 0 0 0 0 0 0 0 0 0 0 0 0 0 0 0 0 0 0 0 0 0 0 0 0 0 0 0 0 0 0 0 0 0 0 0 0 0 0 0 0 0
147 158 146 182 156 147 120 111 72 6 0 0 0 0 0 0 0 0 0 0 0 0 0 0 0 0 0 0 0 0 0 0 0 0 0 0 0 0 0 0 0 0 0 0 0 0 0 0 0 0 0 0 0 0 0 0 0 0 0 0 0 0 0 0 0 0 0 0 0 0 0 0 0 0 0 0 0 0 0 0 0 0 0 0 0
351 159 77 206 216 224 159 149 100 52 6 0 0 0 0 0 0 0 0 0 0 0 0 0 0 0 0 0 0 0 0 0 0 0 0 0 0 0 0 0 0 0 0 0 0 0 0 0 0 0 0 0 0 0 0 0 0 0 0 0 0 0 0 0 0 0 0 0 0 0 0 0 0 0 0 0 0 0 0 0 0 0 0 0 0
476 305 12 11 237 294 243 178 140 83 38 9 0 0 0 0 0 0 0 0 0 0 0 0 0 0 0 0 0 0 0 0 0 0 0 0 0 0 0 0 0 0 0 0 0 0 0 0 0 0 0 0 0 0 0 0 0 0 0 0 0 0 0 0 0 0 0 0 0 0 0 0 0 0 0 0 0 0 0 0 0 0 0 0 0
506 777 393 93 258 68 134 202 177 138 103 36 8 0 0 0 0 0 0 0 0 0 0 0 0 0 0 0 0 0 0 0 0 0 0 0 0 0 0 0 0 0 0 0 0 0 0 0 0 0 0 0 0 0 0 0 0 0 0 0 0 0 0 0 0 0 0 0 0 0 0 0 0 0 0 0 0 0 0 0 0 0 0 0 0
559 445 549 377 296 149 204 260 272 230 41 12 6 0 0 0 0 0 0 0 0 0 0 0 0 0 0 0 0 0 0 0 0 0 0 0 0 0 0 0 0 0 0 0 0 0 0 0 0 0 0 0 0 0 0 0 0 0 0 0 0 0 0 0 0 0 0 0 8 0 0 0 0 0 0 0 0 0 0 0 0 0 0 0 0
678 661 489 393 602 124 218 305 115 33 22 15 19 18 7 0 0 0 0 0 0 0 0 0 0 0 0 0 0 0 0 0 0 0 0 0 0 0 0 0 0 0 0 0 0 0 0 0 0 0 0 0 0 0 0 0 0 0 0 0 0 0 0 0 0 0 0 1 1 1 4 0 0 0 0 0 0 0 0 0 0 0 0 0 0
873 674 409 387 494 515 177 100 469 141 36 45 53 38 1 11 0 0 0 0 0 0 0 0 0 0 0 0 0 0 0 0 0 0 0 0 0 0 0 0 0 0 0 0 0 0 0 0 0 0 0 0 0 0 0 0 0 0 0 0 0 0 0 0 0 0 0 0 1 0 14 13 14 2 0 0 0 0 0 0 0 0 0 0 0
938 881 666 646 641 333 279 313 407 441 180 116 38 14 74 72 0 6 0 0 0 0 0 0 0 0 0 0 0 0 0 0 0 0 0 0 0 0 0 0 0 0 0 0 0 0 0 0 0 0 0 0 0 0 0 0 0 0 0 0 0 0 0 0 0 0 0 0 0 0 0 22 23 20 12 3 0 0 0 0 0 0 0 0 0
1030 1009 1023 938 666 630 653 293 608 340 171 123 29 195 82 56 5 0 0 0 0 0 0 0 0 0 0 0 0 0 0 0 0 0 0 0 0 0 0 0 0 0 0 0 0 0 0 0 0 0 0 0 0 0 0 0 0 0 0 0 0 0 0 0 0 0 0 0 0 0 0 0 1 4 0 7 132 14 2 0 0 0 0 0 0
963 690 917 940 966 781 618 719 410 313 209 84 31 238 118 72 58 29 26 0 17 22 0 0 0 0 0 0 0 0 0 0 0 0 0 0 0 0 0 0 0 0 0 0 0 0 0 0 0 0 0 0 0 0 0 0 0 0 0 0 0 0 0 0 0 0 0 0 0 0 0 2 1 0 0 2 145 80 153 15 1 0 0 0 0
895 931 931 926 955 849 663 598 309 284 141 0 131 111 66 73 68 62 38 42 48 0 0 0 0 0 0 0 0 0 0 0 0 0 0 0 0 0 0 0 0 0 0 0 0 0 0 0 0 0 0 0 0 0 0 0 0 0 0 0 0 0 0 0 0 0 0 0 0 0 0 0 0 0 0 0 0 6 3 0 0 0 0 0 0
610 598 608 736 693 596 494 407 153 58 27 166 191 103 118 63 69 92 101 35 20 49 0 0 0 0 0 0 0 0 0 0 0 0 0 0 0 0 0 0 0 0 0 0 0 0 0 0 0 0 0 0 0 0 0 0 0 0 0 0 0 0 0 0 0 0 0 0 0 0 0 0 0 0 0 0 0 6 1 0 0 0 0 0 0
474 447 476 571 618 554 408 318 226 206 168 114 184 147 95 139 96 44 27 11 45 17 7 0 0 0 0 0 0 0 0 0 0 0 0 0 0 0 0 0 0 0 0 0 0 0 0 0 0 0 0 0 0 0 0 0 0 0 0 0 0 0 0 0 0 0 0 0 0 0 0 0 0 0 0 0 0 5 16 4 0 0 0 0 0
482 462 424 536 541 420 417 100 93 0 0 164 157 32 67 108 106 82 70 77 56 40 2 2 0 0 0 0 0 0 0 0 0 0 0 0 0 0 0 0 0 0 0 0 0 0 0 0 0 0 0 0 0 0 0 0 0 0 0 0 0 0 0 0 0 0 0 0 0 0 0 0 0 0 0 0 0 0 0 0 0 0 0 0 0
287 309 337 396 504 486 106 0 0 2 173 254 232 218 143 9 88 82 46 34 16 6 0 0 0 0 0 0 0 0 0 0 0 0 0 0 0 0 0 0 0 0 0 0 0 1 0 0 0 0 1 3 2 0 0 0 0 0 0 0 0 0 0 0 0 0 0 0 0 0 0 0 0 0 0 0 0 0 8 0 0 0 0 0 0
359 292 197 256 332 296 48 42 0 0 139 251 228 133 140 137 119 89 43 45 23 0 4 2 0 0 0 0 0 0 0 0 0 0 0 0 0 0 0 0 0 0 0 0 0 0 0 0 0 0 0 0 0 0 0 0 0 0 0 0 0 0 0 0 0 0 0 0 0 0 0 0 0 0 0 0 0 0 0 3 0 0 0 0 0
342 311 227 182 252 157 39 2 0 0 39 4 0 0 0 0 47 46 21 15 14 10 0 0 0 0 0 0 0 0 0 0 0 0 0 0 0 0 0 0 0 0 0 0 0 0 0 0 0 0 0 0 0 0 0 0 0 0 0 0 0 0 0 1 0 0 0 0 0 2 1 0 0 0 3 0 0 0 4 4 0 0 0 0 0
241 232 161 147 76 2 2 2 0 0 0 0 0 0 23 30 30 15 4 6 1 0 0 0 0 0 0 1 0 0 0 0 0 0 0 0 0 0 0 0 0 0 0 0 0 0 0 0 0 8 0 2 0 0 0 0 0 0 0 0 0 0 0 0 0 0 0 0 0 0 0 0 0 0 2 5 3 1 13 24 5 0 0 0 0
Wind_Speed
20 20 19 19 21 23 18 18 16 16 18 17 14 15 19 21 25 23 23 21 19 17 16 16 23 27 29 28 27 25 24 23 22 21 20 23 25 26 27 27 28 29 28 29 27 27 26 25 25 nan nan nan nan nan nan nan nan nan nan nan 23 21 nan nan nan nan nan nan nan nan nan nan nan nan nan nan nan nan nan nan nan nan nan nan nan
22 21 20 22 24 23 19 20 19 14 18 16 15 15 18 20 23 25 24 22 21 20 17 15 18 25 28 29 28 27 28 25 23 21 20 22 24 26 25 26 26 27 28 28 28 26 26 26 25 25 nan nan nan nan nan nan nan nan nan nan 27 23 23 nan nan nan nan nan nan nan nan nan nan nan nan nan nan nan nan nan nan nan nan nan nan
23 21 19 23 25 22 20 20 20 17 18 16 15 17 18 20 23 24 24 23 22 22 20 17 17 22 27 30 30 29 27 28 25 23 20 23 22 26 25 25 24 24 25 26 28 27 26 26 26 25 23 nan nan nan nan nan nan nan nan nan 28 26 23 24 nan nan nan nan nan nan nan nan nan nan nan nan nan nan nan nan nan nan nan nan nan
23 22 20 22 23 21 21 21 21 23 16 13 18 17 17 17 19 24 26 23 24 24 23 21 20 22 27 30 32 31 30 28 26 24 24 23 23 24 26 24 23 22 23 25 25 27 27 26 26 26 25 24 nan nan nan nan nan nan nan nan 28 27 25 24 nan nan nan nan nan nan nan nan nan nan nan nan nan nan nan nan nan nan nan nan nan
26 23 21 21 24 23 22 22 23 22 15 13 19 17 14 15 17 21 23 25 26 24 23 23 21 21 24 29 32 32 32 31 29 27 25 24 24 24 24 25 25 21 21 22 24 26 27 27 26 26 26 24 24 nan nan nan nan nan nan nan 24 26 nan 25 24 nan nan nan nan nan nan nan nan nan nan nan nan nan nan nan nan nan nan nan nan
28 29 25 22 21 19 22 20 20 23 20 18 18 15 13 13 16 18 23 25 27 23 23 23 21 21 23 25 30 34 34 33 31 30 28 27 26 24 23 25 25 24 23 20 21 24 26 27 25 26 26 25 25 23 24 nan nan nan nan nan nan 24 nan 25 24 24 nan nan nan nan nan nan nan nan nan nan nan nan nan nan nan nan nan nan nan
30 32 24 19 19 16 23 27 26 26 23 18 17 17 16 17 16 17 23 24 27 26 28 27 28 29 28 27 28 32 34 34 35 33 30 27 27 26 25 25 26 24 23 25 21 21 22 24 25 25 26 24 24 22 21 21 19 nan nan nan nan nan nan nan 25 25 24 nan nan nan nan nan nan nan nan nan nan nan nan nan nan nan nan nan nan
28 30 24 22 16 21 29 26 27 26 22 18 16 19 20 19 20 22 21 26 27 24 27 25 28 30 29 29 31 35 36 36 35 35 33 31 28 27 25 24 24 24 24 25 24 23 20 21 22 24 24 22 21 21 19 19 21 20 nan nan nan nan nan nan nan 24 24 nan nan nan nan nan nan nan nan nan nan nan nan nan nan nan nan nan nan
26 28 26 22 23 24 29 28 25 25 21 18 19 20 22 22 23 22 22 23 25 25 26 26 27 30 31 32 34 36 39 41 38 36 35 32 30 27 nan 27 25 24 26 25 25 25 22 18 20 20 22 22 20 18 18 19 19 21 20 nan nan nan nan nan nan nan 24 24 nan nan nan nan nan nan nan nan nan nan nan nan nan nan nan nan nan
26 26 27 24 25 33 24 26 24 23 21 21 19 22 24 24 22 20 21 20 23 23 26 27 27 30 30 32 34 36 38 41 42 40 37 33 32 nan nan 28 27 26 26 25 23 26 25 21 18 19 19 20 20 18 17 18 18 20 18 18 18 19 nan nan nan nan 24 23 22 nan nan nan nan nan nan nan nan nan nan nan nan nan nan nan nan
26 27 24 24 27 33 24 24 25 25 22 21 20 23 25 22 17 22 24 23 23 24 26 26 28 29 30 29 31 32 34 38 39 38 37 36 35 nan nan nan nan 30 28 28 27 25 26 24 22 21 20 18 18 18 16 16 17 18 17 16 17 18 18 19 nan nan nan 22 22 21 nan nan nan nan nan nan nan nan nan nan nan nan nan nan nan
27 27 26 23 27 32 27 22 23 27 24 22 20 19 21 22 21 24 23 22 21 22 25 27 27 28 30 29 29 29 28 31 36 36 39 40 38 36 nan nan 35 33 30 30 28 25 25 25 23 21 19 20 16 16 15 15 15 15 14 14 15 17 17 17 17 nan nan nan 21 20 23 nan nan nan nan nan nan nan nan nan nan nan nan nan nan
28 28 27 25 25 32 28 24 25 27 29 25 22 18 21 24 24 21 21 21 22 19 25 28 27 28 29 27 29 29 28 27 31 34 35 42 41 38 38 38 36 34 33 34 30 28 27 26 24 22 21 22 21 17 16 15 14 14 11 11 11 13 15 15 15 16 16 nan nan 19 22 23 nan nan nan nan nan nan nan nan nan nan nan nan nan
30 30 29 28 28 28 28 26 25 26 27 27 28 26 23 23 22 20 17 19 19 24 28 29 27 27 30 31 29 29 28 28 nan 32 37 39 43 41 37 37 37 36 35 34 32 30 nan nan 27 24 23 24 25 23 21 18 16 12 11 10 9 10 12 14 14 13 14 15 nan nan 21 22 nan nan nan nan nan nan nan nan nan nan nan nan nan
nan nan 30 nan 32 31 30 27 25 28 27 27 27 26 25 26 24 24 23 21 25 28 29 27 29 28 32 33 30 33 34 29 30 34 36 36 36 36 38 nan 40 38 37 36 34 33 nan nan nan 27 26 26 27 27 25 22 20 18 13 10 10 8 9 11 12 12 13 13 15 16 21 21 nan nan nan nan nan nan nan nan nan nan nan nan nan
nan nan nan nan nan nan 31 30 30 27 28 28 27 26 27 27 28 24 23 26 29 28 29 29 28 30 31 31 32 33 32 31 33 37 36 35 nan nan nan nan 44 48 45 40 37 36 35 32 30 32 31 29 28 27 25 25 24 25 19 16 13 12 9 9 10 11 12 13 14 15 21 22 24 nan nan nan nan nan nan nan nan nan nan nan nan
nan nan nan nan nan nan nan nan nan 30 29 29 28 30 29 28 29 27 27 26 29 28 30 29 29 28 29 32 31 28 25 26 27 28 34 nan nan nan 44 nan nan 45 43 44 45 41 35 33 34 34 32 31 30 29 28 27 29 27 25 21 18 15 14 11 11 10 11 12 12 13 18 23 24 25 nan nan nan nan nan nan nan nan nan nan nan
nan nan nan nan nan nan nan nan nan nan nan nan nan nan nan nan 32 30 30 29 26 29 30 29 29 27 27 29 29 27 25 23 21 21 26 31 37 41 44 46 47 47 46 45 44 47 45 43 39 35 34 35 33 32 31 31 30 32 29 28 22 20 18 16 14 12 10 10 11 14 13 23 24 25 nan nan nan nan nan nan nan nan nan nan nan
nan nan nan nan nan nan nan nan nan nan nan nan nan nan nan nan nan nan 32 31 29 28 29 28 28 28 29 29 27 25 23 22 19 19 18 21 26 34 42 44 47 47 48 48 49 47 46 46 42 39 37 42 41 38 37 35 32 30 28 33 29 25 23 20 17 15 13 12 12 13 14 19 25 24 25 nan nan nan nan nan nan nan nan nan nan
nan nan nan nan nan nan nan nan nan nan nan nan nan nan nan nan nan nan nan nan nan 31 32 29 28 30 30 29 26 24 23 nan nan 14 19 17 16 22 29 38 45 48 48 48 49 47 43 42 41 37 40 41 43 42 38 35 35 35 36 nan 33 29 26 23 22 20 19 17 15 14 15 18 22 25 26 nan nan nan nan nan nan nan nan nan nan
nan nan nan nan nan nan nan nan nan nan nan nan nan nan nan nan nan nan nan nan nan nan nan nan nan nan 29 30 29 26 25 21 17 21 20 19 18 18 18 25 33 41 46 49 49 47 42 40 39 34 33 39 42 41 39 33 36 38 41 36 39 35 33 30 27 24 23 23 22 19 17 20 19 25 26 27 nan nan nan nan nan nan nan nan nan
nan nan nan nan nan nan nan nan nan nan nan nan nan nan nan nan nan nan nan nan nan nan nan nan nan nan nan nan nan nan 28 27 nan nan nan 24 nan nan nan nan 23 32 38 nan nan nan nan nan 38 nan nan nan 38 39 37 36 36 36 44 42 36 38 38 35 32 28 26 25 26 23 21 20 20 22 27 29 30 nan nan nan nan nan nan nan nan
nan nan nan nan nan nan nan nan nan nan nan nan nan nan nan nan nan nan nan nan nan nan nan nan nan nan nan nan nan nan nan nan nan nan nan nan nan nan nan nan nan nan 28 32 nan nan nan nan nan nan nan nan nan 35 36 36 34 44 44 42 42 38 38 37 35 32 30 28 28 26 24 24 24 23 26 30 30 30 33 nan nan nan nan nan nan
nan nan nan nan nan nan nan nan nan nan nan nan nan nan nan nan nan nan nan nan nan nan nan nan nan nan nan nan nan nan nan nan nan nan nan nan nan nan nan nan nan nan nan nan nan nan nan nan nan nan nan nan nan nan nan 35 37 44 35 38 40 41 39 37 35 34 33 31 nan nan nan 26 28 25 26 29 31 31 31 30 30 nan nan nan nan
nan nan nan nan nan nan nan nan nan nan nan nan nan nan nan nan nan nan nan nan nan nan nan nan nan nan nan nan nan nan nan nan nan nan nan nan nan nan nan nan nan nan nan nan nan nan nan nan nan nan nan nan nan nan nan nan 28 33 nan 34 nan 35 37 35 34 34 32 30 nan nan nan nan 29 27 26 26 30 32 33 32 32 nan nan nan nan
nan nan nan nan nan nan nan nan nan nan nan nan nan nan nan nan nan nan nan nan nan nan nan nan nan nan nan nan nan nan nan nan nan nan nan nan nan nan nan nan nan nan nan nan nan nan nan nan nan nan nan nan nan nan 25 26 27 33 nan 29 28 32 30 28 nan nan nan nan nan nan nan nan nan 28 28 29 30 34 36 36 36 nan nan nan nan
nan nan nan nan nan nan nan nan nan nan nan nan nan nan nan nan nan nan nan nan nan nan nan nan nan nan nan nan nan nan nan nan nan nan nan nan nan nan nan nan nan nan nan nan nan nan nan nan nan nan nan nan nan nan nan nan nan 33 nan 23 23 nan nan 26 25 nan nan nan nan nan nan nan nan nan nan 31 32 33 36 36 37 37 35 nan nan
nan nan nan nan nan nan nan nan nan nan nan nan nan nan nan nan nan nan nan nan nan nan nan nan nan nan nan nan nan nan nan nan nan nan nan nan nan nan nan nan nan nan nan nan nan nan nan nan nan nan nan nan nan nan nan nan 32 nan nan 20 nan nan 24 nan nan nan nan nan nan nan nan nan nan nan nan nan 29 30 33 34 35 36 35 34 nan
nan 23 nan nan nan nan nan nan nan nan nan nan nan nan nan nan nan nan nan nan nan nan nan nan nan nan nan nan nan nan nan nan nan nan nan nan nan nan nan nan nan nan nan nan nan nan nan nan nan nan nan nan nan nan nan nan 29 25 nan nan nan 22 nan nan nan nan nan nan nan nan nan nan 29 30 31 30 nan nan nan 30 30 32 34 34 33
nan 23 nan nan nan nan nan nan nan nan nan nan nan nan nan nan nan nan nan nan nan nan nan nan nan nan nan nan nan nan nan nan nan nan nan nan nan nan nan nan nan nan nan nan nan nan nan nan nan nan nan nan nan nan nan nan nan nan nan nan nan 24 nan nan nan nan nan nan nan nan nan nan nan nan nan nan 27 25 23 nan 26 26 31 31 33
nan 25 nan nan nan nan nan nan nan nan nan nan nan nan nan nan nan nan nan nan nan nan nan nan nan nan nan nan nan nan nan nan nan nan nan nan nan nan nan nan nan nan nan nan nan nan nan nan nan nan nan nan nan nan nan nan nan nan nan nan nan nan nan nan nan nan nan nan nan nan nan nan nan nan nan nan nan nan nan nan 22 24 25 27 30
nan 25 23 24 nan nan nan nan nan nan nan nan nan nan nan nan nan nan nan nan nan nan nan nan nan nan nan nan nan nan nan nan nan nan nan nan nan nan nan nan nan nan nan nan nan nan nan nan nan nan nan nan nan nan nan nan nan nan nan nan nan nan nan nan nan nan nan nan nan nan nan nan nan nan nan nan nan nan nan nan nan nan nan 24 27
22 23 22 23 24 23 nan nan nan nan nan nan nan nan nan nan nan nan nan nan nan nan nan nan nan nan nan nan nan nan nan nan nan nan nan nan nan nan nan nan nan nan nan nan nan nan nan nan nan nan nan nan nan nan nan nan nan nan nan nan nan nan nan nan nan nan nan nan nan nan nan nan nan nan nan nan nan nan nan nan nan nan nan nan nan
20 23 22 24 24 24 22 22 nan nan nan nan nan nan nan nan nan nan nan nan nan nan nan nan nan nan nan nan nan nan nan nan nan nan nan nan nan nan nan nan nan nan nan nan nan nan nan nan nan nan nan nan nan nan nan nan nan nan nan nan nan nan nan nan nan nan nan nan nan nan nan nan nan nan nan nan nan nan nan nan nan nan nan nan nan
21 21 nan 25 24 24 23 22 nan nan nan nan nan nan nan nan nan nan nan nan nan nan nan nan nan nan nan nan nan nan nan nan nan nan nan nan nan nan nan nan nan nan nan nan nan nan nan nan nan nan nan nan nan nan nan nan nan nan nan nan nan nan nan nan nan nan nan nan nan nan nan nan nan nan nan nan nan nan nan nan nan nan nan nan nan
19 21 nan nan 24 25 24 23 24 nan nan nan nan nan nan nan nan nan nan nan nan nan nan nan nan nan nan nan nan nan nan nan nan nan nan nan nan nan nan nan nan nan nan nan nan nan nan nan nan nan nan nan nan nan nan nan nan nan nan nan nan nan nan nan nan nan nan nan nan nan nan nan nan nan nan nan nan nan nan nan nan nan nan nan nan
28 24 18 nan 22 nan 25 25 25 24 23 nan nan nan nan nan nan nan nan nan nan nan nan nan nan nan nan nan nan nan nan nan nan nan nan nan nan nan nan nan nan nan nan nan nan nan nan nan nan nan nan nan nan nan nan nan nan nan nan nan nan nan nan nan nan nan nan nan nan nan nan nan nan nan nan nan nan nan nan nan nan nan nan nan nan
29 27 24 21 20 20 22 24 24 26 nan nan nan nan nan nan nan nan nan nan nan nan nan nan nan nan nan nan nan nan nan nan nan nan nan nan nan nan nan nan nan nan nan nan nan nan nan nan nan nan nan nan nan nan nan nan nan nan nan nan nan nan nan nan nan nan nan nan nan nan nan nan nan nan nan nan nan nan nan nan nan nan nan nan nan
25 26 27 28 26 19 21 22 23 nan nan nan nan nan nan nan nan nan nan nan nan nan nan nan nan nan nan nan nan nan nan nan nan nan nan nan nan nan nan nan nan nan nan nan nan nan nan nan nan nan nan nan nan nan nan nan nan nan nan nan nan nan nan nan nan nan nan nan nan nan nan nan nan nan nan nan nan nan nan nan nan nan nan nan nan
28 26 26 34 35 26 20 24 26 29 nan nan nan nan nan nan nan nan nan nan nan nan nan nan nan nan nan nan nan nan nan nan nan nan nan nan nan nan nan nan nan nan nan nan nan nan nan nan nan nan nan nan nan nan nan nan nan nan nan nan nan nan nan nan nan nan nan nan nan nan nan nan nan nan nan nan nan nan nan nan nan nan nan nan nan
31 27 28 30 37 30 25 29 31 34 33 33 nan nan nan nan nan nan nan nan nan nan nan nan nan nan nan nan nan nan nan nan nan nan nan nan nan nan nan nan nan nan nan nan nan nan nan nan nan nan nan nan nan nan nan nan nan nan nan nan nan nan nan nan nan nan nan nan nan nan nan nan nan nan nan nan nan nan nan nan nan nan nan nan nan
34 33 31 35 36 34 32 28 31 33 34 34 nan 46 nan nan nan nan nan nan nan nan nan nan nan nan nan nan nan nan nan nan nan nan nan nan nan nan nan nan nan nan nan nan nan nan nan nan nan nan nan nan nan nan nan nan nan nan nan nan nan nan nan nan nan nan nan nan nan nan nan nan nan nan nan nan 31 nan nan nan nan nan nan nan nan
35 35 34 34 39 40 35 36 35 37 42 nan nan 48 51 nan nan nan nan nan nan nan nan nan nan nan nan nan nan nan nan nan nan nan nan nan nan nan nan nan nan nan nan nan nan nan nan nan nan nan nan nan nan nan nan nan nan nan nan nan nan nan nan nan nan nan nan nan nan nan nan nan nan nan nan nan 34 nan 36 nan nan nan nan nan nan
38 38 37 35 38 41 40 41 46 49 47 nan 55 56 nan nan nan nan nan nan nan nan nan nan nan nan nan nan nan nan nan nan nan nan nan nan nan nan nan nan nan nan nan nan nan nan nan nan nan nan nan nan nan nan nan nan nan nan nan nan nan nan nan nan nan nan nan nan nan nan nan nan nan nan nan nan nan nan nan nan nan nan nan nan nan
42 39 39 38 41 48 49 49 53 nan nan 56 61 61 61 nan nan nan 50 nan nan nan nan nan nan nan nan nan nan nan nan nan nan nan nan nan nan nan nan nan nan nan nan nan nan nan nan nan nan nan nan nan nan nan nan nan nan nan nan nan nan nan nan nan nan nan nan nan nan nan nan nan nan nan nan nan nan nan nan nan nan nan nan nan nan
46 44 43 41 42 44 47 50 54 58 58 59 65 65 nan 61 nan nan nan nan nan nan nan nan nan nan nan nan nan nan nan nan nan nan nan nan nan nan nan nan nan nan nan nan nan nan nan nan nan nan nan nan nan nan nan nan nan nan nan nan nan nan nan nan nan nan nan nan nan nan nan nan nan nan nan nan nan nan nan nan nan nan nan nan nan
50 50 49 48 49 47 49 nan nan nan nan 65 68 nan nan 60 55 nan nan nan nan nan nan nan nan nan nan nan nan nan nan nan nan nan nan nan nan nan nan nan nan nan nan nan nan nan nan nan nan nan nan nan nan nan nan nan nan nan nan nan nan nan nan nan nan nan nan nan nan nan nan nan nan nan nan nan nan nan nan nan nan nan nan nan nan
54 55 54 53 54 54 62 nan nan nan 64 67 70 67 64 nan nan nan nan nan nan nan nan nan nan nan nan nan nan nan nan nan nan nan nan nan nan nan nan nan nan nan nan nan nan nan nan nan nan nan nan nan nan nan nan nan nan nan nan nan nan nan nan nan nan nan nan nan nan nan nan nan nan nan nan nan nan nan nan nan nan nan nan nan nan
55 55 55 56 57 61 nan nan nan nan 65 64 67 66 63 62 61 nan nan nan nan nan nan nan nan nan nan nan nan nan nan nan nan nan nan nan nan nan nan nan nan nan nan nan nan nan nan nan nan nan nan nan nan nan nan nan nan nan nan nan nan nan nan nan nan nan nan nan nan nan nan nan nan nan nan nan nan nan nan nan nan nan nan nan nan
53 53 54 58 62 62 nan nan nan nan nan nan nan nan nan nan nan nan nan nan nan nan nan nan nan nan nan nan nan nan nan nan nan nan nan nan nan nan nan nan nan nan nan nan nan nan nan nan nan nan nan nan nan nan nan nan nan nan nan nan nan nan nan nan nan nan nan nan nan nan nan nan nan nan nan nan nan nan nan nan nan nan nan nan nan
50 52 54 57 nan nan nan nan nan nan nan nan nan nan nan nan nan nan nan nan nan nan nan nan nan nan nan nan nan nan nan nan nan nan nan nan nan nan nan nan nan nan nan nan nan nan nan nan nan nan nan nan nan nan nan nan nan nan nan nan nan nan nan nan nan nan nan nan nan nan nan nan nan nan nan nan nan nan nan nan nan nan nan nan nan
Wind_Direction
255 251 241 253 256 247 244 247 259 256 270 269 263 263 263 262 267 268 264 265 266 271 276 257 233 212 206 210 212 216 219 219 221 223 223 224 232 238 244 240 233 227 221 219 228 231 229 228 233 nan nan nan nan nan nan nan nan nan nan nan 251 265 nan nan nan nan nan nan nan nan nan nan nan nan nan nan nan nan nan nan nan nan nan nan nan
257 252 253 251 253 258 252 252 262 262 269 268 264 264 260 259 262 265 267 262 258 261 263 263 242 223 212 210 214 212 219 220 221 223 225 227 228 239 247 243 237 237 228 223 220 229 232 231 234 237 nan nan nan nan nan nan nan nan nan nan 252 257 263 nan nan nan nan nan nan nan nan nan nan nan nan nan nan nan nan nan nan nan nan nan nan
255 259 259 258 255 258 262 262 262 260 260 268 269 263 259 257 258 262 265 261 256 257 259 256 242 230 221 211 211 217 219 222 219 223 225 233 229 236 242 245 241 233 237 233 226 228 230 233 235 238 239 nan nan nan nan nan nan nan nan nan 256 257 260 264 nan nan nan nan nan nan nan nan nan nan nan nan nan nan nan nan nan nan nan nan nan
258 259 258 262 262 261 262 261 261 252 245 260 263 263 259 255 261 259 259 258 255 246 251 245 243 231 225 219 212 212 218 223 223 222 222 228 229 235 238 239 243 236 229 232 235 231 231 233 236 235 241 238 nan nan nan nan nan nan nan nan 260 260 261 264 nan nan nan nan nan nan nan nan nan nan nan nan nan nan nan nan nan nan nan nan nan
261 259 259 260 257 261 263 263 263 269 271 270 268 258 262 262 256 259 259 260 256 253 248 248 241 239 230 227 221 216 216 218 224 223 224 226 229 230 239 243 243 244 236 230 229 234 236 235 237 239 239 242 240 nan nan nan nan nan nan nan 260 261 nan 264 264 nan nan nan nan nan nan nan nan nan nan nan nan nan nan nan nan nan nan nan nan
265 260 256 253 259 265 259 262 265 271 267 258 259 265 259 257 264 261 264 261 260 255 255 254 251 245 241 233 228 223 220 218 221 224 224 225 229 229 230 236 244 245 241 240 233 233 235 240 239 241 242 243 244 241 247 nan nan nan nan nan nan 259 nan 262 265 267 nan nan nan nan nan nan nan nan nan nan nan nan nan nan nan nan nan nan nan
264 276 269 265 262 265 262 255 257 265 261 246 259 266 265 263 250 262 265 261 259 257 249 242 243 241 235 233 235 231 227 221 219 219 223 226 226 230 230 229 234 242 244 244 245 238 238 241 244 241 243 242 248 245 243 248 250 nan nan nan nan nan nan nan 264 270 270 nan nan nan nan nan nan nan nan nan nan nan nan nan nan nan nan nan nan
265 270 273 270 273 264 264 265 261 266 268 264 267 273 266 260 260 252 259 258 257 259 260 254 249 247 241 239 235 228 226 226 224 221 220 222 227 232 236 236 235 235 239 242 244 249 250 245 245 249 248 247 252 246 244 241 245 258 nan nan nan nan nan nan nan 269 273 nan nan nan nan nan nan nan nan nan nan nan nan nan nan nan nan nan nan
270 270 275 277 274 268 258 266 273 269 273 273 275 271 270 267 258 257 252 255 264 261 258 255 251 251 248 241 237 235 229 224 222 225 223 222 221 222 nan 233 238 235 239 236 243 249 259 257 252 253 254 250 255 253 249 245 243 256 252 nan nan nan nan nan nan nan 274 276 nan nan nan nan nan nan nan nan nan nan nan nan nan nan nan nan nan
257 268 269 270 269 266 268 263 267 274 274 279 274 273 268 266 264 266 265 260 270 269 263 261 257 252 250 248 244 240 233 228 223 219 224 225 224 nan nan 230 238 241 242 244 240 245 251 259 262 257 257 258 256 256 255 251 250 255 258 254 255 258 nan nan nan nan 274 279 278 nan nan nan nan nan nan nan nan nan nan nan nan nan nan nan nan
262 262 268 268 267 272 268 271 274 272 275 274 276 279 271 263 262 265 255 256 256 256 257 260 260 258 254 254 252 249 240 230 226 224 224 224 224 nan nan nan nan 236 239 241 242 241 253 252 253 250 253 263 258 256 258 252 251 253 256 261 257 268 268 268 nan nan nan 278 280 278 nan nan nan nan nan nan nan nan nan nan nan nan nan nan nan
264 263 263 263 268 269 273 268 271 275 278 274 274 269 274 275 276 271 269 258 257 260 261 260 260 259 257 256 255 256 251 235 226 225 227 225 224 224 nan nan 226 230 236 240 240 244 247 255 254 252 249 267 272 263 263 258 252 251 261 257 261 269 277 276 273 nan nan nan 279 280 276 nan nan nan nan nan nan nan nan nan nan nan nan nan nan
259 263 265 267 264 276 278 275 272 272 274 274 272 262 255 261 264 262 263 260 252 263 268 266 264 263 259 260 257 256 250 242 232 228 228 229 225 225 227 226 225 226 227 232 236 239 244 244 244 247 250 250 269 279 274 270 262 263 261 266 267 271 276 281 278 273 273 nan nan 281 279 281 nan nan nan nan nan nan nan nan nan nan nan nan nan
261 262 263 263 266 265 271 278 276 275 275 277 276 273 269 272 267 266 268 272 272 273 273 273 270 269 265 256 253 257 253 246 nan 237 233 233 228 225 226 228 228 228 229 232 232 235 nan nan 245 240 243 244 261 262 261 262 267 273 268 271 273 276 272 279 280 276 273 276 nan nan 281 282 nan nan nan nan nan nan nan nan nan nan nan nan nan
nan nan 264 nan 264 266 266 269 269 272 275 276 278 277 271 274 280 279 272 269 269 273 276 275 268 270 266 260 255 252 254 255 249 244 244 240 235 229 227 nan 223 225 231 233 233 236 nan nan nan 247 241 242 242 258 265 269 275 282 282 279 276 273 277 274 278 278 276 274 278 281 282 285 nan nan nan nan nan nan nan nan nan nan nan nan nan
nan nan nan nan nan nan 269 268 270 270 272 274 273 272 272 275 276 275 271 271 275 275 274 274 269 272 273 272 266 259 259 263 254 247 244 247 nan nan nan nan 230 229 226 227 232 233 236 239 240 243 246 243 245 241 250 265 279 286 293 289 286 282 286 285 276 274 277 276 276 280 282 288 289 nan nan nan nan nan nan nan nan nan nan nan nan
nan nan nan nan nan nan nan nan nan 270 276 276 274 274 276 271 272 271 271 269 275 274 273 272 273 267 265 273 272 268 267 261 254 253 244 nan nan nan 239 nan nan 231 231 229 225 226 231 239 243 244 247 249 248 247 244 238 260 269 274 282 285 284 282 279 274 276 274 275 279 277 277 285 290 291 nan nan nan nan nan nan nan nan nan nan nan
nan nan nan nan nan nan nan nan nan nan nan nan nan nan nan nan 273 271 273 274 269 277 273 265 265 269 266 262 263 264 263 257 253 256 250 243 238 237 239 238 234 231 231 230 229 231 228 224 230 240 251 247 248 251 248 248 242 253 259 263 276 281 279 276 275 274 281 278 268 273 275 278 285 287 nan nan nan nan nan nan nan nan nan nan nan
nan nan nan nan nan nan nan nan nan nan nan nan nan nan nan nan nan nan 273 272 272 274 277 273 271 270 269 264 264 264 257 261 263 257 251 251 247 241 238 237 236 234 231 231 232 231 229 229 224 227 233 244 241 239 246 249 251 251 244 257 282 282 279 278 277 277 278 276 274 272 273 276 282 283 283 nan nan nan nan nan nan nan nan nan nan
nan nan nan nan nan nan nan nan nan nan nan nan nan nan nan nan nan nan nan nan nan 268 267 266 268 266 265 267 269 266 263 nan nan 264 265 259 251 247 245 240 238 237 235 234 235 237 235 235 231 226 232 236 240 240 238 246 250 246 248 nan 270 271 275 275 269 263 260 263 266 265 267 262 274 281 285 nan nan nan nan nan nan nan nan nan nan
nan nan nan nan nan nan nan nan nan nan nan nan nan nan nan nan nan nan nan nan nan nan nan nan nan nan 267 267 268 267 267 269 272 270 270 271 271 267 255 253 247 242 238 238 237 238 239 241 234 228 239 246 244 242 245 242 246 254 248 244 262 264 261 261 263 263 262 257 259 262 264 272 274 279 284 286 nan nan nan nan nan nan nan nan nan
nan nan nan nan nan nan nan nan nan nan nan nan nan nan nan nan nan nan nan nan nan nan nan nan nan nan nan nan nan nan 272 267 nan nan nan 274 nan nan nan nan 246 247 245 nan nan nan nan nan 237 nan nan nan 245 245 239 243 246 248 258 260 257 262 262 260 260 261 263 263 261 264 265 265 277 283 286 287 288 nan nan nan nan nan nan nan nan
nan nan nan nan nan nan nan nan nan nan nan nan nan nan nan nan nan nan nan nan nan nan nan nan nan nan nan nan nan nan nan nan nan nan nan nan nan nan nan nan nan nan 244 248 nan nan nan nan nan nan nan nan nan 246 248 247 247 251 245 257 261 262 258 256 255 255 257 260 262 263 266 268 269 279 287 291 292 293 292 nan nan nan nan nan nan
nan nan nan nan nan nan nan nan nan nan nan nan nan nan nan nan nan nan nan nan nan nan nan nan nan nan nan nan nan nan nan nan nan nan nan nan nan nan nan nan nan nan nan nan nan nan nan nan nan nan nan nan nan nan nan 252 257 268 268 269 270 270 264 257 252 250 250 253 nan nan nan 267 271 277 285 292 296 296 295 296 297 nan nan nan nan
nan nan nan nan nan nan nan nan nan nan nan nan nan nan nan nan nan nan nan nan nan nan nan nan nan nan nan nan nan nan nan nan nan nan nan nan nan nan nan nan nan nan nan nan nan nan nan nan nan nan nan nan nan nan nan nan 254 262 nan 255 nan 268 269 262 257 254 254 255 nan nan nan nan 270 278 283 287 293 297 297 296 292 nan nan nan nan
nan nan nan nan nan nan nan nan nan nan nan nan nan nan nan nan nan nan nan nan nan nan nan nan nan nan nan nan nan nan nan nan nan nan nan nan nan nan nan nan nan nan nan nan nan nan nan nan nan nan nan nan nan nan 251 249 254 274 nan 273 265 259 261 261 nan nan nan nan nan nan nan nan nan 271 279 284 284 286 289 288 288 nan nan nan nan
nan nan nan nan nan nan nan nan nan nan nan nan nan nan nan nan nan nan nan nan nan nan nan nan nan nan nan nan nan nan nan nan nan nan nan nan nan nan nan nan nan nan nan nan nan nan nan nan nan nan nan nan nan nan nan nan nan 275 nan 273 259 nan nan 259 257 nan nan nan nan nan nan nan nan nan nan 271 274 275 287 290 288 287 288 nan nan
nan nan nan nan nan nan nan nan nan nan nan nan nan nan nan nan nan nan nan nan nan nan nan nan nan nan nan nan nan nan nan nan nan nan nan nan nan nan nan nan nan nan nan nan nan nan nan nan nan nan nan nan nan nan nan nan 265 nan nan 267 nan nan 268 nan nan nan nan nan nan nan nan nan nan nan nan nan 269 274 278 288 291 287 286 287 nan
nan 284 nan nan nan nan nan nan nan nan nan nan nan nan nan nan nan nan nan nan nan nan nan nan nan nan nan nan nan nan nan nan nan nan nan nan nan nan nan nan nan nan nan nan nan nan nan nan nan nan nan nan nan nan nan nan 270 275 nan nan nan 263 nan nan nan nan nan nan nan nan nan nan 275 277 278 277 nan nan nan 279 289 289 283 285 288
nan 284 nan nan nan nan nan nan nan nan nan nan nan nan nan nan nan nan nan nan nan nan nan nan nan nan nan nan nan nan nan nan nan nan nan nan nan nan nan nan nan nan nan nan nan nan nan nan nan nan nan nan nan nan nan nan nan nan nan nan nan 251 nan nan nan nan nan nan nan nan nan nan nan nan nan nan 282 280 276 nan 281 287 285 288 290
nan 289 nan nan nan nan nan nan nan nan nan nan nan nan nan nan nan nan nan nan nan nan nan nan nan nan nan nan nan nan nan nan nan nan nan nan nan nan nan nan nan nan nan nan nan nan nan nan nan nan nan nan nan nan nan nan nan nan nan nan nan nan nan nan nan nan nan nan nan nan nan nan nan nan nan nan nan nan nan nan 283 286 291 293 292
nan 296 295 295 nan nan nan nan nan nan nan nan nan nan nan nan nan nan nan nan nan nan nan nan nan nan nan nan nan nan nan nan nan nan nan nan nan nan nan nan nan nan nan nan nan nan nan nan nan nan nan nan nan nan nan nan nan nan nan nan nan nan nan nan nan nan nan nan nan nan nan nan nan nan nan nan nan nan nan nan nan nan nan 296 296
292 298 300 301 301 299 nan nan nan nan nan nan nan nan nan nan nan nan nan nan nan nan nan nan nan nan nan nan nan nan nan nan nan nan nan nan nan nan nan nan nan nan nan nan nan nan nan nan nan nan nan nan nan nan nan nan nan nan nan nan nan nan nan nan nan nan nan nan nan nan nan nan nan nan nan nan nan nan nan nan nan nan nan nan nan
281 290 295 295 298 300 297 295 nan nan nan nan nan nan nan nan nan nan nan nan nan nan nan nan nan nan nan nan nan nan nan nan nan nan nan nan nan nan nan nan nan nan nan nan nan nan nan nan nan nan nan nan nan nan nan nan nan nan nan nan nan nan nan nan nan nan nan nan nan nan nan nan nan nan nan nan nan nan nan nan nan nan nan nan nan
280 282 nan 287 291 293 292 290 nan nan nan nan nan nan nan nan nan nan nan nan nan nan nan nan nan nan nan nan nan nan nan nan nan nan nan nan nan nan nan nan nan nan nan nan nan nan nan nan nan nan nan nan nan nan nan nan nan nan nan nan nan nan nan nan nan nan nan nan nan nan nan nan nan nan nan nan nan nan nan nan nan nan nan nan nan
274 284 nan nan 285 285 286 287 288 nan nan nan nan nan nan nan nan nan nan nan nan nan nan nan nan nan nan nan nan nan nan nan nan nan nan nan nan nan nan nan nan nan nan nan nan nan nan nan nan nan nan nan nan nan nan nan nan nan nan nan nan nan nan nan nan nan nan nan nan nan nan nan nan nan nan nan nan nan nan nan nan nan nan nan nan
277 262 268 nan 286 nan 281 287 291 292 291 nan nan nan nan nan nan nan nan nan nan nan nan nan nan nan nan nan nan nan nan nan nan nan nan nan nan nan nan nan nan nan nan nan nan nan nan nan nan nan nan nan nan nan nan nan nan nan nan nan nan nan nan nan nan nan nan nan nan nan nan nan nan nan nan nan nan nan nan nan nan nan nan nan nan
282 284 286 277 280 290 289 289 291 290 nan nan nan nan nan nan nan nan nan nan nan nan nan nan nan nan nan nan nan nan nan nan nan nan nan nan nan nan nan nan nan nan nan nan nan nan nan nan nan nan nan nan nan nan nan nan nan nan nan nan nan nan nan nan nan nan nan nan nan nan nan nan nan nan nan nan nan nan nan nan nan nan nan nan nan
271 273 275 280 276 288 295 288 285 nan nan nan nan nan nan nan nan nan nan nan nan nan nan nan nan nan nan nan nan nan nan nan nan nan nan nan nan nan nan nan nan nan nan nan nan nan nan nan nan nan nan nan nan nan nan nan nan nan nan nan nan nan nan nan nan nan nan nan nan nan nan nan nan nan nan nan nan nan nan nan nan nan nan nan nan
258 262 264 272 274 271 279 287 285 283 nan nan nan nan nan nan nan nan nan nan nan nan nan nan nan nan nan nan nan nan nan nan nan nan nan nan nan nan nan nan nan nan nan nan nan nan nan nan nan nan nan nan nan nan nan nan nan nan nan nan nan nan nan nan nan nan nan nan nan nan nan nan nan nan nan nan nan nan nan nan nan nan nan nan nan
258 265 270 271 276 280 293 289 287 283 283 286 nan nan nan nan nan nan nan nan nan nan nan nan nan nan nan nan nan nan nan nan nan nan nan nan nan nan nan nan nan nan nan nan nan nan nan nan nan nan nan nan nan nan nan nan nan nan nan nan nan nan nan nan nan nan nan nan nan nan nan nan nan nan nan nan nan nan nan nan nan nan nan nan nan
259 264 269 275 276 276 280 286 289 283 285 284 nan 291 nan nan nan nan nan nan nan nan nan nan nan nan nan nan nan nan nan nan nan nan nan nan nan nan nan nan nan nan nan nan nan nan nan nan nan nan nan nan nan nan nan nan nan nan nan nan nan nan nan nan nan nan nan nan nan nan nan nan nan nan nan nan 278 nan nan nan nan nan nan nan nan
261 266 271 274 277 279 282 280 275 283 282 nan nan 287 285 nan nan nan nan nan nan nan nan nan nan nan nan nan nan nan nan nan nan nan nan nan nan nan nan nan nan nan nan nan nan nan nan nan nan nan nan nan nan nan nan nan nan nan nan nan nan nan nan nan nan nan nan nan nan nan nan nan nan nan nan nan 279 nan 285 nan nan nan nan nan nan
263 263 264 268 276 280 281 282 281 280 277 nan 281 279 nan nan nan nan nan nan nan nan nan nan nan nan nan nan nan nan nan nan nan nan nan nan nan nan nan nan nan nan nan nan nan nan nan nan nan nan nan nan nan nan nan nan nan nan nan nan nan nan nan nan nan nan nan nan nan nan nan nan nan nan nan nan nan nan nan nan nan nan nan nan nan
264 265 268 268 272 276 277 277 277 nan nan 276 277 276 274 nan nan nan 287 nan nan nan nan nan nan nan nan nan nan nan nan nan nan nan nan nan nan nan nan nan nan nan nan nan nan nan nan nan nan nan nan nan nan nan nan nan nan nan nan nan nan nan nan nan nan nan nan nan nan nan nan nan nan nan nan nan nan nan nan nan nan nan nan nan nan
268 269 271 272 272 274 275 275 274 272 274 274 277 278 nan 279 nan nan nan nan nan nan nan nan nan nan nan nan nan nan nan nan nan nan nan nan nan nan nan nan nan nan nan nan nan nan nan nan nan nan nan nan nan nan nan nan nan nan nan nan nan nan nan nan nan nan nan nan nan nan nan nan nan nan nan nan nan nan nan nan nan nan nan nan nan
271 272 273 275 274 274 273 nan nan nan nan 279 279 nan nan 286 288 nan nan nan nan nan nan nan nan nan nan nan nan nan nan nan nan nan nan nan nan nan nan nan nan nan nan nan nan nan nan nan nan nan nan nan nan nan nan nan nan nan nan nan nan nan nan nan nan nan nan nan nan nan nan nan nan nan nan nan nan nan nan nan nan nan nan nan nan
271 272 273 274 277 276 274 nan nan nan 278 280 281 283 285 nan nan nan nan nan nan nan nan nan nan nan nan nan nan nan nan nan nan nan nan nan nan nan nan nan nan nan nan nan nan nan nan nan nan nan nan nan nan nan nan nan nan nan nan nan nan nan nan nan nan nan nan nan nan nan nan nan nan nan nan nan nan nan nan nan nan nan nan nan nan
271 272 273 274 275 277 nan nan nan nan 280 284 286 286 287 285 282 nan nan nan nan nan nan nan nan nan nan nan nan nan nan nan nan nan nan nan nan nan nan nan nan nan nan nan nan nan nan nan nan nan nan nan nan nan nan nan nan nan nan nan nan nan nan nan nan nan nan nan nan nan nan nan nan nan nan nan nan nan nan nan nan nan nan nan nan
273 274 273 274 275 277 nan nan nan nan nan nan nan nan nan nan nan nan nan nan nan nan nan nan nan nan nan nan nan nan nan nan nan nan nan nan nan nan nan nan nan nan nan nan nan nan nan nan nan nan nan nan nan nan nan nan nan nan nan nan nan nan nan nan nan nan nan nan nan nan nan nan nan nan nan nan nan nan nan nan nan nan nan nan nan
271 273 274 276 nan nan nan nan nan nan nan nan nan nan nan nan nan nan nan nan nan nan nan nan nan nan nan nan nan nan nan nan nan nan nan nan nan nan nan nan nan nan nan nan nan nan nan nan nan nan nan nan nan nan nan nan nan nan nan nan nan nan nan nan nan nan nan nan nan nan nan nan nan nan nan nan nan nan nan nan nan nan nan nan nan